3CAT-5B (46293 NORAD) Tracking and Keplerian Element Data

This shows tracking and keplerian element data for the satellite.

Feedback or suggestion? Click here.




ElementValue
Catalog46293
Name3CAT-5B
Epoch Orbit1326
Epoch Day335.46153045
Epoch Year2020
RAAN46.9348
Inclination97.5104
Eccentricity0.000396
Argument of Perigee32.1386
Mean Anonmoly328.0084
Mean Motion15.1034673
Decay Rate9.22E-06
L11 46293U 20061X 20335.46153045 .00000922 00000-0 60063-4 0 9996
L22 46293 97.5104 46.9348 0003960 32.1386 328.0084 15.10346730 13264

Live tracking and technical data element details for 3CAT-5B (NORAD 46293). 3CAT-5B can be tracked NOW for your location showing map with azimuth and elevation plus other details from your city location.

Track the satellite on the map from your city or location and see movement details for azimuth, elevation, latitude, longitude, range, height, and movement on the map or in text.







IsCatalogInMostPopularTable: catalog: 46293, numindb: 21
Update: records affected: 1



GetName: 46293 3CAT-5B

Hit Count: updated at: Tue, 01 Dec 2020 21:21:54 GMT